| time (UTC) | temp C | wind direction | speed KPH | gust KPH | rain 1hr cm | rain 24hr cm | rain mn cm | humidity % | barometer mb |
| 20260903074522 | 24 | 100 | 0.0 | 3.2 | 0.00 | 0.00 | 0.00 | 57 | 1023.1 |
| 20260903073031 | 23 | 100 | 0.0 | 4.8 | 0.00 | 0.00 | 0.00 | 60 | 1023.1 |
| 20260903071523 | 23 | 100 | 1.6 | 4.8 | 0.00 | 0.00 | 0.00 | 61 | 1023.1 |
| 20260903070030 | 22 | 5 | 0.0 | 0.0 | 0.00 | 0.00 | 0.00 | 62 | 1023.0 |
| 20260903064539 | 21 | 5 | 0.0 | 1.6 | 0.00 | 0.00 | 0.00 | 64 | 1023.1 |
| 20260903063030 | 20 | 5 | 0.0 | 1.6 | 0.00 | 0.00 | 0.00 | 67 | 1023.0 |
| 20260903061540 | 19 | 5 | 0.0 | 0.0 | 0.00 | 0.00 | 0.00 | 70 | 1023.0 |
| 20260903060046 | 18 | 5 | 0.0 | 0.0 | 0.00 | 0.00 | 0.00 | 73 | 1023.0 |
| 20260903054518 | 17 | 5 | 0.0 | 0.0 | 0.00 | 0.00 | 0.00 | 75 | 1023.0 |
| 20260903053024 | 16 | 5 | 0.0 | 0.0 | 0.00 | 0.00 | 0.00 | 75 | 1023.0 |
| 20260903051536 | 16 | 5 | 0.0 | 0.0 | 0.00 | 0.00 | 0.00 | 75 | 1022.9 |
| 20260903050028 | 16 | 5 | 3.2 | 4.8 | 0.00 | 0.00 | 0.00 | 75 | 1022.7 |
| 20260903044516 | 16 | 5 | 0.0 | 0.0 | 0.00 | 0.00 | 0.00 | 75 | 1022.7 |
| 20260903043026 | 16 | 5 | 0.0 | 3.2 | 0.00 | 0.00 | 0.00 | 75 | 1022.8 |
| 20260903041542 | 16 | 5 | 0.0 | 0.0 | 0.00 | 0.00 | 0.00 | 75 | 1022.6 |
| 20260903040050 | 16 | 5 | 0.0 | 0.0 | 0.00 | 0.00 | 0.00 | 75 | 1022.7 |
| 20260903034553 | 16 | 5 | 0.0 | 6.4 | 0.00 | 0.00 | 0.00 | 75 | 1022.9 |
| 20260903033025 | 16 | 5 | 1.6 | 14.5 | 0.00 | 0.00 | 0.00 | 75 | 1022.8 |
| 20260903031515 | 17 | 5 | 1.6 | 8.0 | 0.00 | 0.00 | 0.00 | 75 | 1022.8 |
| 20260903030046 | 17 | 5 | 8.0 | 12.9 | 0.00 | 0.00 | 0.00 | 74 | 1022.8 |
| 20260903024518 | 17 | 29 | 0.0 | 4.8 | 0.00 | 0.00 | 0.00 | 73 | 1022.8 |
| 20260903023028 | 17 | 29 | 0.0 | 4.8 | 0.00 | 0.00 | 0.00 | 73 | 1022.9 |
| 20260903021540 | 17 | 26 | 0.0 | 6.4 | 0.00 | 0.00 | 0.00 | 72 | 1023.0 |
| 20260903020028 | 17 | 27 | 1.6 | 8.0 | 0.00 | 0.00 | 0.00 | 72 | 1023.0 |
| 20260903014522 | 17 | 24 | 0.0 | 0.0 | 0.00 | 0.00 | 0.00 | 71 | 1023.0 |
| 20260903013030 | 18 | 24 | 0.0 | 0.0 | 0.00 | 0.00 | 0.00 | 71 | 1023.0 |
| 20260903011521 | 18 | 24 | 0.0 | 0.0 | 0.00 | 0.00 | 0.00 | 70 | 1023.1 |
| 20260903010028 | 18 | 24 | 0.0 | 1.6 | 0.00 | 0.00 | 0.00 | 70 | 1023.1 |
| 20260903004518 | 18 | 24 | 0.0 | 0.0 | 0.00 | 0.00 | 0.00 | 69 | 1023.1 |
| 20260903003028 | 18 | 24 | 0.0 | 3.2 | 0.00 | 0.00 | 0.00 | 68 | 1023.0 |
| 20260903001518 | 19 | 25 | 0.0 | 0.0 | 0.00 | 0.00 | 0.00 | 68 | 1023.1 |
| 20260903000047 | 19 | 25 | 0.0 | 0.0 | 0.00 | 0.00 | 0.00 | 68 | 1023.1 |
| 20260902234519 | 19 | 25 | 0.0 | 0.0 | 0.00 | 0.00 | 0.00 | 67 | 1023.1 |
| 20260902233027 | 20 | 25 | 0.0 | 0.0 | 0.00 | 0.00 | 0.00 | 67 | 1023.1 |
| 20260902231516 | 20 | 25 | 0.0 | 0.0 | 0.00 | 0.00 | 0.00 | 67 | 1023.2 |
| 20260902230024 | 20 | 25 | 0.0 | 0.0 | 0.00 | 0.00 | 0.00 | 66 | 1023.3 |
| 20260902224532 | 20 | 25 | 0.0 | 0.0 | 0.00 | 0.00 | 0.00 | 65 | 1023.3 |
| 20260902223020 | 20 | 25 | 0.0 | 0.0 | 0.00 | 0.00 | 0.00 | 65 | 1023.3 |
| 20260902221514 | 21 | 25 | 0.0 | 0.0 | 0.00 | 0.00 | 0.00 | 64 | 1023.4 |
| 20260902220021 | 21 | 25 | 0.0 | 0.0 | 0.00 | 0.00 | 0.00 | 63 | 1023.4 |
| 20260902214532 | 22 | 25 | 0.0 | 4.8 | 0.00 | 0.00 | 0.00 | 62 | 1023.3 |
| 20260902213025 | 22 | 26 | 3.2 | 6.4 | 0.00 | 0.00 | 0.00 | 62 | 1023.2 |
| 20260902211533 | 22 | 5 | 1.6 | 6.4 | 0.00 | 0.00 | 0.00 | 62 | 1023.2 |
| 20260902210020 | 22 | 5 | 0.0 | 4.8 | 0.00 | 0.00 | 0.00 | 62 | 1023.1 |
| 20260902204535 | 22 | 5 | 1.6 | 8.0 | 0.00 | 0.00 | 0.00 | 62 | 1023.1 |
| 20260902203023 | 22 | 254 | 1.6 | 14.5 | 0.00 | 0.00 | 0.00 | 63 | 1023.0 |
| 20260902201534 | 22 | 360 | 4.8 | 12.9 | 0.00 | 0.00 | 0.00 | 62 | 1023.0 |
| 20260902200026 | 23 | 280 | 4.8 | 12.9 | 0.00 | 0.00 | 0.00 | 62 | 1022.9 |
| 20260902194517 | 23 | 263 | 6.4 | 11.3 | 0.00 | 0.00 | 0.00 | 61 | 1023.0 |
| 20260902193023 | 23 | 324 | 4.8 | 9.7 | 0.00 | 0.00 | 0.00 | 61 | 1023.1 |
| 20260902191515 | 24 | 323 | 6.4 | 12.9 | 0.00 | 0.00 | 0.00 | 59 | 1022.9 |
| 20260902190022 | 25 | 290 | 3.2 | 12.9 | 0.00 | 0.00 | 0.00 | 59 | 1022.8 |
| 20260902184554 | 25 | 285 | 4.8 | 12.9 | 0.00 | 0.00 | 0.00 | 58 | 1022.6 |
| 20260902183025 | 25 | 249 | 8.0 | 12.9 | 0.00 | 0.00 | 0.00 | 58 | 1022.4 |
| 20260902181519 | 25 | 283 | 9.7 | 19.3 | 0.00 | 0.00 | 0.00 | 58 | 1022.1 |
| 20260902180027 | 26 | 281 | 6.4 | 16.1 | 0.00 | 0.00 | 0.00 | 56 | 1022.1 |
| 20260902174524 | 26 | 217 | 11.3 | 20.9 | 0.00 | 0.00 | 0.00 | 54 | 1021.9 |
| 20260902173052 | 27 | 261 | 9.7 | 22.5 | 0.00 | 0.00 | 0.00 | 52 | 1021.8 |
| 20260902171521 | 27 | 223 | 8.0 | 19.3 | 0.00 | 0.00 | 0.00 | 47 | 1021.6 |
| 20260902170033 | 28 | 240 | 9.7 | 24.1 | 0.00 | 0.00 | 0.00 | 41 | 1021.6 |
| 20260902164523 | 28 | 244 | 6.4 | 12.9 | 0.00 | 0.00 | 0.00 | 33 | 1021.7 |
| 20260902163031 | 28 | 229 | 8.0 | 19.3 | 0.00 | 0.00 | 0.00 | 30 | 1021.7 |
| 20260902161525 | 29 | 217 | 6.4 | 19.3 | 0.00 | 0.00 | 0.00 | 29 | 1021.8 |
| 20260902160030 | 29 | 350 | 6.4 | 20.9 | 0.00 | 0.00 | 0.00 | 29 | 1021.7 |
| 20260902154520 | 30 | 267 | 12.9 | 29.0 | 0.00 | 0.00 | 0.00 | 30 | 1021.6 |
| 20260902153050 | 30 | 259 | 14.5 | 27.4 | 0.00 | 0.00 | 0.00 | 28 | 1021.8 |
| 20260902151540 | 30 | 243 | 14.5 | 22.5 | 0.00 | 0.00 | 0.00 | 24 | 1021.8 |
| 20260902150018 | 30 | 254 | 12.9 | 25.7 | 0.00 | 0.00 | 0.00 | 27 | 1021.8 |
| 20260902144533 | 30 | 266 | 12.9 | 20.9 | 0.00 | 0.00 | 0.00 | 28 | 1021.8 |
| 20260902143020 | 31 | 266 | 12.9 | 22.5 | 0.00 | 0.00 | 0.00 | 28 | 1021.8 |
| 20260902141554 | 31 | 291 | 17.7 | 25.7 | 0.00 | 0.00 | 0.00 | 27 | 1021.9 |
| 20260902140022 | 30 | 279 | 11.3 | 20.9 | 0.00 | 0.00 | 0.00 | 27 | 1022.0 |
| 20260902134555 | 30 | 252 | 9.7 | 22.5 | 0.00 | 0.00 | 0.00 | 27 | 1022.2 |
| 20260902133023 | 30 | 327 | 12.9 | 22.5 | 0.00 | 0.00 | 0.00 | 26 | 1022.3 |
| 20260902131538 | 30 | 200 | 8.0 | 24.1 | 0.00 | 0.00 | 0.00 | 28 | 1022.6 |
| 20260902130028 | 29 | 279 | 8.0 | 19.3 | 0.00 | 0.00 | 0.00 | 30 | 1022.7 |
| 20260902124518 | 30 | 273 | 16.1 | 24.1 | 0.00 | 0.00 | 0.00 | 29 | 1022.9 |
| 20260902123028 | 30 | 263 | 14.5 | 22.5 | 0.00 | 0.00 | 0.00 | 31 | 1023.1 |
| 20260902121517 | 30 | 304 | 14.5 | 27.4 | 0.00 | 0.00 | 0.00 | 29 | 1023.2 |
| 20260902120024 | 30 | 346 | 9.7 | 19.3 | 0.00 | 0.00 | 0.00 | 31 | 1023.3 |
| 20260902114517 | 29 | 200 | 12.9 | 22.5 | 0.00 | 0.00 | 0.00 | 27 | 1023.4 |
| 20260902113024 | 29 | 219 | 14.5 | 25.7 | 0.00 | 0.00 | 0.00 | 28 | 1023.5 |
| 20260902111532 | 29 | 248 | 9.7 | 22.5 | 0.00 | 0.00 | 0.00 | 32 | 1023.5 |
| 20260902110023 | 28 | 248 | 11.3 | 17.7 | 0.00 | 0.00 | 0.00 | 34 | 1023.6 |
| 20260902104515 | 28 | 190 | 11.3 | 16.1 | 0.00 | 0.00 | 0.00 | 37 | 1023.8 |
| 20260902103027 | 28 | 194 | 0.0 | 8.0 | 0.00 | 0.00 | 0.00 | 39 | 1023.9 |
| 20260902101522 | 28 | 145 | 1.6 | 12.9 | 0.00 | 0.00 | 0.00 | 41 | 1024.0 |
| 20260902100028 | 28 | 61 | 1.6 | 4.8 | 0.00 | 0.00 | 0.00 | 44 | 1024.2 |
| 20260902094518 | 27 | 71 | 0.0 | 9.7 | 0.00 | 0.00 | 0.00 | 46 | 1024.3 |
| 20260902093028 | 27 | 31 | 0.0 | 6.4 | 0.00 | 0.00 | 0.00 | 49 | 1024.2 |
| 20260902091517 | 27 | 23 | 1.6 | 6.4 | 0.00 | 0.00 | 0.00 | 51 | 1024.3 |
| 20260902090024 | 26 | 360 | 0.0 | 3.2 | 0.00 | 0.00 | 0.00 | 53 | 1024.4 |
| 20260902084535 | 25 | 360 | 0.0 | 4.8 | 0.00 | 0.00 | 0.00 | 54 | 1024.4 |
| 20260902083036 | 25 | 360 | 0.0 | 3.2 | 0.00 | 0.00 | 0.00 | 55 | 1024.4 |
| 20260902081545 | 23 | 360 | 0.0 | 1.6 | 0.00 | 0.00 | 0.00 | 58 | 1024.3 |
| 20260902080049 | 22 | 360 | 0.0 | 1.6 | 0.00 | 0.00 | 0.00 | 61 | 1024.3 |